Regional Weather Roundup
Issued by NWS State College, PA

Home | Current Version | Previous Version | Text Only | Print | Product List | Glossary Off
Versions: 1 2 3 4 5 6 7 8 9 10 11 12 13 14 15 16 17 18 19 20 21 22 23 24 25 26 27 28 29 30 31 32 33 34 35 36 37 38 39 40 41 42 43 44 45 46 47 48 49 50

000
ASUS41 KCTP 180510
RWRCTP

REGIONAL WEATHER ROUNDUP
NATIONAL WEATHER SERVICE STATE COLLEGE PA
1200 AM EST THU DEC 18 2014

Note: "fair" indicates few or no clouds below 12,000 feet with no
significant weather and/or obstructions to visibility.

* = STATION THAT DOES NOT REPORT PRECIPITATION /E.G. RAIN...SNOW...ETC/
    THUNDER OR FOG.

PAZ002>004-007>009-013>016-020>023-029>032-180600-
WESTERN PENNSYLVANIA

CITY           SKY/WX    TMP DP  RH WIND       PRES   REMARKS
ERIE           CLOUDY    32  22  66 W14G23    30.08S
MEADVILLE      LGT SNOW  27  22  81 W14       30.06S
FRANKLIN*      CLOUDY    27  19  74 W12G17    30.07S
NEW CASTLE       N/A     28  21  75 SW10G20   30.13S
BEAVER COUNTY  NOT AVBL
BUTLER*        CLOUDY    28  21  74 W8        30.12S
PITTSBURGH INT FLURRIES  28  20  71 W13G21    30.12S
PITTSBURGH     CLOUDY    28  18  66 W12G21    30.11S
INDIANA*       CLOUDY    28  23  80 W12G21    30.11S
LATROBE        NOT AVBL
WASHINGTON CO* CLOUDY    28  21  74 W7G17     30.15S
$$

PAZ004>006-010>012-017>019-024>028-033>037-041-042-045-046-049>053-180600-
CENTRAL PENNSYLVANIA

CITY           SKY/WX    TMP DP  RH WIND       PRES   REMARKS
BRADFORD       LGT SNOW  25  21  85 W12       29.96S FOG     WCI  14
DUBOIS         CLOUDY    26  22  84 W16       30.01S WCI  14
CLEARFIELD     CLOUDY    28  21  75 W7        30.03S
JOHNSTOWN      CLOUDY    25  17  72 W18G29    30.00S WCI  11
ALTOONA        CLOUDY    31  20  63 NW16G24   30.03S
STATE COLLEGE  CLOUDY    30  20  66 W16G24    30.03S
WILLIAMSPORT   CLOUDY    35  22  58 W13G24    29.98S
SELINSGROVE    CLOUDY    35  21  56 W13G24    30.02R
FT INDIANTOWN  CLOUDY    36  21  54 W13G24    30.01S
CAPITAL CITY   CLOUDY    37  21  52 NW16G24   30.03S
HARRISBURG     MOCLDY    37  21  52 NW24      30.02S
YORK           CLOUDY    37  23  56 W12G20    30.02S
$$

PAZ038>040-043-044-047-048-054-055-060>062-067>071-180600-
EASTERN PENNSYLVANIA

CITY           SKY/WX    TMP DP  RH WIND       PRES   REMARKS
SCRANTON       LGT SNOW  35  27  72 W9        29.92S
MOUNT POCONO   CLOUDY    31  23  72 W14       29.85S
ALLENTOWN      CLOUDY    37  21  52 W15G23    29.94F
QUAKERTOWN*    CLEAR     36  25  64 NW9       29.95S
READING        MOCLDY    36  21  54 W14       29.97F
LANCASTER      CLOUDY    36  22  56 W20       29.99F
COATESVILLE    MOCLDY    36  27  69 NW17G23   29.97F
POTTSTOWN      CLEAR     34  22  61 W9G18     29.97F
BLUE BELL      CLEAR     36  27  69 W8        29.95F
DOYLESTOWN     CLEAR     34  24  67 W15G24    29.94S
WILLOW GROVE   NOT AVBL
NORTH PHILA    CLEAR     38  22  52 W12       29.98S
PHILADELPHIA   PTCLDY    39  22  50 W12       29.99S
$$



USA.gov is the U.S. government's official web portal to all federal, state and local government web resources and services.